Home   Weather   Oxford   Past weeks
Flag for United Kingdom

Past Weather in Oxford, England, United Kingdom — Yesterday and Last 2 Weeks

Now
46 °F

Partly sunny.


Feels Like: 39 °F
Forecast: N/A
Wind: 17 mph from Southwest

Location: Benson

Current Time: Feb 18, 2020 at 3:44:18 pm

Latest Report: Feb 18, 2020 at 2:50 pm


Visibility: N/A

Pressure: 30.01 "Hg

Humidity: 76%

Dew Point: 39 °F

Location of OxfordLocation

Past Weather in Oxford — Graph

°F

Oxford Temperature Yesterday

Maximum temperature yesterday: 50 °F (at 1:21 pm)
Minimum temperature yesterday: 39 °F (at 11:50 pm)
Average temperature yesterday: 45 °F

High & Low Weather Summary for the Past Weeks

 TemperatureHumidityPressure
High55 °F (Feb 9, 1:50 pm)100% (Feb 5, 1:50 am)30.66 "Hg (Feb 5, 1:50 am)
Low25 °F (Feb 6, 2:50 am)46% (Feb 11, 1:21 pm)29.06 "Hg (Feb 9, 2:50 pm)
Average44 °F80%29.88 "Hg
* Reported Feb 3 1:20 pm — Feb 18 1:50 pm, Oxford. Weather by CustomWeather, © 2020

Note: Actual official high and low records may vary slightly from our data, if they occured in-between our weather recording intervals... More about our weather records

Oxford Weather History for the Previous 24 Hours

Scroll right to see more
 ConditionsComfort  
Time TempWeatherWind HumidityBarometerVisibility
1:50 pm
Tue, Feb 18
48 °FSprinkles. Broken clouds.16 mph76%30.07 "HgN/A
1:20 pm50 °FBroken clouds.17 mph67%30.04 "HgN/A
12:50 pm50 °FBroken clouds.22 mph67%30.07 "HgN/A
12:20 pm48 °FPartly sunny.20 mph71%30.07 "HgN/A
11:50 am48 °FScattered clouds.23 mph71%30.09 "HgN/A
11:20 am46 °FScattered clouds.20 mph76%30.09 "HgN/A
10:50 am46 °FScattered showers. Broken clouds.21 mph76%30.09 "HgN/A
10:20 am45 °FPartly sunny.18 mph76%30.09 "HgN/A
9:50 am43 °FPartly sunny.15 mph81%30.12 "HgN/A
9:20 am43 °FSunny.14 mph81%30.09 "Hg10 mi
8:50 am41 °FSunny.12 mph87%30.09 "Hg10 mi
8:20 am41 °FSunny.14 mph81%30.12 "Hg10 mi
7:50 am39 °FSunny.12 mph87%30.09 "Hg10 mi
6:50 am39 °FPassing clouds.12 mph87%30.09 "HgN/A
5:50 am39 °FPassing clouds.12 mph87%30.09 "HgN/A
4:50 am39 °FPassing clouds.10 mph87%30.09 "HgN/A
3:50 am39 °FPassing clouds.13 mph87%30.07 "HgN/A
2:50 am39 °FClear.10 mph87%30.07 "HgN/A
1:50 am39 °FClear.12 mph87%30.07 "HgN/A
12:50 am39 °FClear.13 mph81%30.07 "HgN/A
11:50 pm
Mon, Feb 17
39 °FClear.10 mph81%30.04 "HgN/A
10:50 pm41 °FClear.12 mph81%30.04 "HgN/A
9:50 pm41 °FClear.12 mph81%30.01 "HgN/A
8:50 pm41 °FClear.13 mph81%29.98 "HgN/A
7:50 pm43 °FPassing clouds.13 mph76%29.95 "HgN/A
6:50 pm45 °FPassing clouds.15 mph76%29.95 "HgN/A
5:50 pm46 °FPassing clouds.15 mph71%29.89 "HgN/A
5:20 pm46 °FPartly sunny.17 mph76%29.89 "HgN/A
4:50 pm48 °FBroken clouds.17 mph71%29.86 "HgN/A
4:20 pm48 °FPartly sunny.18 mph71%29.86 "HgN/A
3:50 pm48 °FScattered clouds.16 mph71%29.83 "HgN/A
3:21 pm50 °FScattered clouds.20 mph71%29.83 "HgN/A
Weather by CustomWeather, © 2020

See weather overview

Advertising